Change the Weather History Date:

Friday, November 9, 2012

  Actual Average Record
Temperature  
Mean Temperature 51 °F 46 °F  
Max Temperature 66 °F 55 °F 75 °F (2006)
Min Temperature 35 °F 37 °F 21 °F (2003)
Degree Days  
Heating Degree Days 14 19  
Month to date heating degree days 199 157  
Since 1 July heating degree days 660 575  
Cooling Degree Days 0 0  
Month to date cooling degree days 0 0  
Year to date cooling degree days 1427 1048  
Moisture  
Dew Point 46 °F    
Average Humidity 78    
Maximum Humidity 92    
Minimum Humidity 63    
Precipitation  
Precipitation 0.00 in 0.11 in 0.07 in (2011)
Month to date precipitation 0.35 0.97  
Year to date precipitation 23.05 33.45  
Sea Level Pressure  
Sea Level Pressure 30.03 in    
Wind  
Wind Speed 10 mph (South)    
Max Wind Speed 18 mph    
Max Gust Speed 28 mph    
Visibility 10 miles    
Events      
T = Trace of Precipitation, MM = Missing Value Source: NWS Daily Summary

Daily Weather History Graph

Daily Weather History Graph

Search for Another Location

Airport or City:

Trip Planner

Search our weather history database for the weather conditions in past years. The results will help you decide how hot, cold, wet, or windy it might be!

Date:

Astronomy

Nov. 09, 2012 Rise Set
Actual Time 6:33 AM CST 4:44 PM CST
Civil Twilight 6:05 AM CST 5:12 PM CST
Nautical Twilight 5:32 AM CST 5:45 PM CST
Astronomical Twilight 5:01 AM CST 6:16 PM CST
Moon 1:33 AM CST (11/9) 1:57 PM CST (11/9)
Length of Visible Light 11h 07m
Length of Day
10h 10m
Waning Crescent, 23% of the Moon is Illuminated
Nov 9
Waning Crescent
Nov 13
New
Nov 20
First Quarter
Nov 28
Full
Dec 6
Last Quarter

Hourly Weather History & Observations

Time (CST) Temp. Windchill Dew Point Humidity Pressure Visibility Wind Dir Wind Speed Gust Speed Precip Events Conditions
12:54 AM 41.0 °F 36.4 °F 37.9 °F 89% 30.12 in 10.0 mi South 6.9 mph - N/A   Clear
1:54 AM 35.1 °F 31.0 °F 34.0 °F 96% 30.12 in 7.0 mi ESE 4.6 mph - N/A   Clear
2:54 AM 39.9 °F 35.1 °F 37.9 °F 93% 30.11 in 10.0 mi SSE 6.9 mph - N/A   Clear
3:54 AM 37.0 °F 33.3 °F 36.0 °F 96% 30.11 in 9.0 mi SE 4.6 mph - N/A   Clear
4:54 AM 39.9 °F 35.1 °F 37.9 °F 93% 30.11 in 10.0 mi SSE 6.9 mph - N/A   Clear
5:54 AM 39.9 °F 35.8 °F 37.0 °F 89% 30.11 in 10.0 mi SSE 5.8 mph - N/A   Clear
6:54 AM 39.0 °F 35.7 °F 37.0 °F 93% 30.11 in 8.0 mi SSE 4.6 mph - N/A   Clear
7:54 AM 44.1 °F 39.5 °F 39.9 °F 85% 30.11 in 10.0 mi SSE 8.1 mph - N/A   Clear
8:54 AM 48.0 °F - 42.1 °F 80% 30.10 in 10.0 mi South 12.7 mph - N/A   Clear
9:54 AM 51.1 °F - 44.1 °F 77% 30.08 in 10.0 mi South 10.4 mph - N/A   Overcast
10:54 AM 54.0 °F - 45.0 °F 72% 30.06 in 10.0 mi South 13.8 mph 19.6 mph N/A   Overcast
11:54 AM 60.1 °F - 48.0 °F 64% 30.03 in 10.0 mi South 13.8 mph - N/A   Partly Cloudy
12:54 PM 63.0 °F - 51.1 °F 65% 29.99 in 10.0 mi South 12.7 mph - N/A   Clear
1:54 PM 64.9 °F - 51.1 °F 61% 29.98 in 10.0 mi South 13.8 mph - N/A   Clear
2:54 PM 64.9 °F - 52.0 °F 63% 29.96 in 10.0 mi South 13.8 mph 20.7 mph N/A   Clear
3:54 PM 64.0 °F - 53.1 °F 67% 29.96 in 10.0 mi South 9.2 mph - N/A   Clear
4:54 PM 61.0 °F - 53.1 °F 75% 29.96 in 10.0 mi South 8.1 mph - N/A   Clear
5:54 PM 57.9 °F - 53.1 °F 84% 29.97 in 10.0 mi South 8.1 mph - N/A   Clear
6:54 PM 59.0 °F - 52.0 °F 78% 29.96 in 10.0 mi South 11.5 mph - N/A   Clear
7:54 PM 57.9 °F - 52.0 °F 81% 29.96 in 10.0 mi South 9.2 mph - N/A   Clear
8:54 PM 59.0 °F - 54.0 °F 83% 29.96 in 10.0 mi South 12.7 mph - N/A   Clear
9:54 PM 60.1 °F - 55.9 °F 86% 29.96 in 10.0 mi SSW 15.0 mph - N/A   Clear
10:54 PM 59.0 °F - 55.0 °F 87% 29.97 in 10.0 mi SSW 16.1 mph 23.0 mph N/A   Clear
11:54 PM 59.0 °F - 54.0 °F 83% 29.99 in 10.0 mi SSW 15.0 mph - N/A   Clear